Lid_Strength_Index
12 11 11 12 12 12 13 13 17 14 13 11 10 10 10 10 9 9 9 9 9 8 7 7 6 5 5 4 3 2 2 1 2 1 1 1 1 2 1 2 5 6 7 8
14 11 11 13 11 11 12 12 13 13 13 10 10 10 11 10 10 11 10 10 9 8 8 7 7 6 5 5 4 3 2 2 1 1 1 2 2 2 3 5 7 9 10 11
16 12 12 15 13 13 13 13 13 16 12 11 12 12 11 12 12 11 11 10 10 9 8 7 6 6 6 5 4 3 3 2 2 1 2 2 2 3 5 7 9 10 11 11
16 14 19 13 11 12 13 13 11 12 12 12 12 12 11 11 12 11 10 9 9 8 7 6 6 6 5 5 4 4 3 2 2 2 2 2 3 5 7 8 10 11 11 12
17 16 13 12 13 14 15 15 11 14 13 12 12 13 12 9 9 10 9 9 9 8 7 6 6 5 5 5 4 4 3 2 2 2 2 2 4 7 8 10 10 11 13 13
15 18 19 13 12 10 12 17 12 12 12 13 14 17 13 11 11 11 9 6 6 6 7 7 6 6 6 6 5 4 3 2 2 1 2 3 5 7 8 10 11 11 13 13
15 16 13 11 11 10 17 14 10 11 12 14 15 14 12 11 9 7 7 7 6 6 6 6 6 6 7 7 6 4 2 1 2 2 3 5 6 7 9 11 12 13 15 14
14 16 17 10 12 15 12 11 10 11 12 13 13 12 11 9 9 9 8 8 8 9 8 7 7 6 7 7 5 3 2 2 3 4 5 5 7 9 10 12 14 15 15 16
14 15 8 8 11 10 10 11 10 12 12 12 12 11 10 10 10 10 9 10 9 9 9 9 8 7 7 3 3 2 3 4 5 6 6 8 10 11 13 14 15 16 16 16
13 9 10 9 9 9 9 10 10 10 11 11 12 11 11 11 11 11 11 11 11 11 11 11 9 9 7 4 4 5 6 7 8 8 9 9 11 12 14 16 16 17 16 16
11 10 10 10 10 10 10 9 9 10 11 11 10 11 12 12 12 11 12 11 12 12 12 12 12 10 8 7 7 9 9 9 10 10 11 12 12 13 14 15 15 15 15 15
13 8 12 12 10 9 10 10 10 11 11 10 11 12 11 12 13 12 13 13 14 13 13 13 12 11 10 8 9 9 10 10 11 12 13 14 15 16 14 14 15 14 14 13
8 9 9 9 9 9 10 10 10 11 10 12 11 11 12 13 13 13 13 13 14 14 14 13 12 12 10 10 10 11 12 13 13 13 14 14 14 15 17 15 14 14 14 14
7 9 10 9 10 10 10 9 9 10 10 12 11 11 12 14 13 13 13 13 13 14 15 14 14 13 12 12 12 12 12 12 13 13 13 14 14 14 14 15 16 15 14 13
8 8 8 8 10 10 9 10 10 11 11 12 11 12 13 15 14 13 12 13 13 14 14 15 15 14 12 12 12 12 12 12 12 13 13 13 13 13 14 14 14 14 13 12
8 8 8 8 10 10 10 10 11 11 12 12 12 13 12 13 13 13 13 13 14 16 14 14 14 13 13 13 13 13 13 14 13 13 13 13 13 13 13 13 12 11 11 12
9 10 8 10 11 11 11 10 10 11 11 12 12 11 12 14 13 13 13 13 13 14 13 14 14 13 13 13 13 13 13 13 13 12 12 12 12 12 11 10 10 10 11 11
8 8 8 9 11 11 11 11 11 11 11 11 11 11 13 14 14 14 14 13 14 14 14 14 13 13 13 13 12 12 12 12 12 12 12 12 11 10 10 10 11 11 11 12
9 10 9 10 10 10 11 11 11 10 10 11 11 12 12 13 13 13 12 13 14 15 15 13 13 12 12 12 12 12 12 12 12 12 11 11 10 10 10 10 10 10 10 11
9 9 9 10 10 10 10 10 10 10 10 10 11 12 12 12 12 13 13 13 13 13 12 13 13 13 13 12 13 12 11 10 9 9 9 9 9 10 10 11 10 10 10 10
9 10 10 10 10 10 10 10 10 11 10 10 11 11 12 12 12 12 13 14 13 12 13 13 13 12 12 12 11 11 11 9 9 9 9 9 9 9 9 9 10 10 10 10
9 10 10 10 10 10 10 10 10 10 10 10 10 11 12 12 13 13 13 13 12 13 12 13 13 14 12 13 10 10 9 8 8 8 9 9 9 9 9 9 9 9 9 9
8 9 9 10 10 10 9 10 10 10 10 10 10 10 11 12 11 12 12 11 11 13 12 13 15 16 15 11 10 9 8 8 8 8 8 8 8 9 9 9 9 9 9 9
8 9 9 9 9 10 11 10 9 9 9 9 9 9 9 10 11 10 11 13 14 13 12 13 14 16 13 10 9 8 8 8 8 8 8 10 8 8 8 8 8 8 8 8
7 8 8 9 9 10 10 10 10 10 10 9 9 9 9 9 11 10 10 11 14 12 12 15 15 14 8 7 7 7 7 8 8 8 8 8 8 8 8 8 8 8 8 8
7 7 8 8 8 9 9 9 10 9 9 10 10 9 10 10 10 10 10 11 10 12 10 10 9 8 7 7 7 7 7 8 7 7 8 7 7 7 7 7 7 7 7 7
7 8 8 8 8 8 9 9 10 10 10 9 10 10 11 11 11 10 11 9 10 10 10 9 8 8 7 8 7 7 7 7 9 7 7 7 7 7 7 7 6 6 6 6